Hourly Data Report for October 26, 2013

All times are specified in Local Standard Time (LST). Add 1 hour to adjust for Daylight Saving Time where and when it is observed.

GRISE FIORD CLIMATE
NUNAVUT

76°25'22.040" N
82°54'08.020" W
44.50 m
2402351
71971
NGC

Download Data

Hourly Data (October 2013)
Hourly Data Report for October 26, 2013
Temp Definition
°C
Dew Point Temp Definition
°C
Rel Hum Definition
%
Wind Dir Definition
10's deg

Wind Spd Definition
km/h
Visibility Definition
km
Stn Press Definition
kPa
Hmdx Definition


Wind Chill Definition


Weather Definition


TIME
00:00 -6.5 -12.4 63 7 9   99.84   -11 LegendNANA
01:00 -6.5 -12.5 62 3 9   99.85   -11 LegendNANA
02:00 -7.3 -12.0 69 23 6   99.90   -10 LegendNANA
03:00 -8.0 -12.1 72 5 2   99.90   -9 LegendNANA
04:00 -7.2 -12.7 65 25 6   99.90   -10 LegendNANA
05:00 -7.2 -12.7 65 16 6   99.90   -10 LegendNANA
06:00 -7.3 -12.8 65 23 4   99.93   -9 LegendNANA
07:00 -7.4 -13.1 64 15 6   99.92   -11 LegendNANA
08:00 -8.2 -12.7 70 13 9   99.94   -13 LegendNANA
09:00 -8.3 -13.5 66 28 4   99.94   -10 LegendNANA
10:00 -8.7 -13.7 67 9 7   99.95   -13 LegendNANA
11:00 -9.0 -13.9 68 4 11   99.97   -14 LegendNANA
12:00 -10.2 -13.4 77 25 22   99.98   -18 LegendNANA
13:00 -11.8 -12.7 93 19 9   100.04   -17 LegendNANA
14:00 -12.8 -13.8 92 23 13   100.03   -20 LegendNANA
15:00 -13.2 -14.2 92 25 15   100.01   -21 LegendNANA
16:00 -13.4 -14.3 93 24 19   100.00   -22 LegendNANA
17:00 -13.8 -14.8 92 24 20   99.97   -23 LegendNANA
18:00 -14.0 -15.2 91 24 15   99.95   -22 LegendNANA
19:00 -13.9 -15.3 89 23 11   99.91   -20 LegendNANA
20:00 -14.4 -15.9 88 15 4   99.87   -17 LegendNANA
21:00 -14.1 -16.1 85 8 4   99.82   -17 LegendNANA
22:00 -13.7 -16.3 81 6 13   99.72   -21 LegendNANA
23:00 -13.4 -15.1 87 6 6   99.68   -17 LegendNANA

Notes on Data Quality.

Legend

  • E = Estimated
  • M = Missing
  • NA = Not Available
  • ‡ = Partner data that is not subject to review by the National Climate Archives
Date modified: